Fort Indiantown Gap, PA

2:44 AM EST on February 22, 2018 (GMT -0500)
Muir Army Air Field

Weather History for KMUI - March, 2013

Change the Weather History Date:

Friday, March 1, 2013

  Actual Average Record
Temperature  
Mean Temperature 38 °F -  
Max Temperature 41 °F 41 °F 62 °F (2017)
Min Temperature 35 °F 27 °F 7 °F (2014)
Degree Days  
Heating Degree Days 27    
Moisture  
Dew Point 26 °F    
Average Humidity 60    
Maximum Humidity 74    
Minimum Humidity 51    
Precipitation  
Precipitation 0.00 in - - ()
Sea Level Pressure  
Sea Level Pressure 29.78 in    
Wind  
Wind Speed 8 mph (WNW)    
Max Wind Speed 14 mph    
Max Gust Speed 23 mph    
Visibility 10 miles    
Events      
Averages and records for this station are not official NWS values.
T = Trace of Precipitation, MM = Missing Value Source: NWS Daily Summary

Daily Weather History Graph

Daily Weather History Graph

Search for Another Location

Airport or City:

Trip Planner

Search our weather history database for the weather conditions in past years. The results will help you decide how hot, cold, wet, or windy it might be!

Date:

Astronomy

Mar. 01, 2013 Rise Set
Actual Time 6:39 AM EST 5:58 PM EST
Civil Twilight 6:12 AM EST 6:25 PM EST
Nautical Twilight 5:40 AM EST 6:57 PM EST
Astronomical Twilight 5:09 AM EST 7:28 PM EST
Moon 10:30 PM EST (3/1) 8:23 AM EST (3/1)
Length of Visible Light 12h 13m
Length of Day
11h 18m
Waning Gibbous, 83% of the Moon is Illuminated
Mar 1
Waning Gibbous
Mar 4
Last Quarter
Mar 11
New
Mar 19
First Quarter
Mar 27
Full

Hourly Weather History & Observations

Time (EST) Temp. Windchill Dew Point Humidity Pressure Visibility Wind Dir Wind Speed Gust Speed Precip Events Conditions
12:55 AM 37.9 °F 32.7 °F 30.2 °F 74% 29.70 in 10.0 mi West 6.9 mph - N/A   Overcast
1:55 AM 37.9 °F 32.7 °F 30.0 °F 73% 29.70 in 10.0 mi WSW 6.9 mph - N/A   Overcast
2:55 AM 38.1 °F 34.6 °F 29.5 °F 71% 29.71 in 10.0 mi West 4.6 mph - N/A   Overcast
3:55 AM 38.3 °F 32.5 °F 28.6 °F 68% 29.72 in 10.0 mi West 8.1 mph - N/A   Overcast
4:55 AM 38.3 °F 32.5 °F 28.2 °F 67% 29.73 in 10.0 mi West 8.1 mph - N/A   Overcast
5:55 AM 38.3 °F 31.9 °F 27.9 °F 66% 29.73 in 10.0 mi West 9.2 mph - N/A   Overcast
6:55 AM 37.8 °F 30.7 °F 27.7 °F 67% 29.74 in 10.0 mi West 10.4 mph - N/A   Mostly Cloudy
7:55 AM 38.3 °F 32.5 °F 28.0 °F 67% 29.77 in 10.0 mi West 8.1 mph - N/A   Mostly Cloudy
8:55 AM 39.4 °F 33.2 °F 27.9 °F 63% 29.78 in 10.0 mi West 9.2 mph - N/A   Overcast
9:55 AM 41.7 °F 35.6 °F 27.5 °F 57% 29.79 in 10.0 mi NW 10.4 mph 23.0 mph N/A   Mostly Cloudy
10:55 AM 40.6 °F 34.8 °F 26.8 °F 58% 29.79 in 10.0 mi NW 9.2 mph - N/A   Mostly Cloudy
11:55 AM 41.0 °F 34.7 °F 26.8 °F 57% 29.79 in 10.0 mi NNW 10.4 mph 18.4 mph N/A   Overcast
12:55 PM 41.2 °F 33.7 °F 25.7 °F 54% 29.78 in 10.0 mi NNW 13.8 mph 23.0 mph N/A   Overcast
1:55 PM 40.5 °F 33.6 °F 25.7 °F 56% 29.78 in 10.0 mi NNW 11.5 mph 21.9 mph N/A   Overcast
2:55 PM 40.8 °F 36.2 °F 24.1 °F 51% 29.79 in 10.0 mi Variable 6.9 mph - N/A   Overcast
3:55 PM 39.9 °F 33.4 °F 24.6 °F 54% 29.79 in 10.0 mi WNW 10.4 mph - N/A   Overcast
4:55 PM 39.7 °F 34.3 °F 23.7 °F 53% 29.80 in 10.0 mi NW 8.1 mph - N/A   Mostly Cloudy
5:55 PM 38.7 °F 32.9 °F 23.4 °F 54% 29.81 in 10.0 mi West 8.1 mph - N/A   Mostly Cloudy
6:55 PM 38.7 °F 33.6 °F 23.4 °F 54% 29.83 in 10.0 mi Variable 6.9 mph - N/A   Overcast
7:55 PM 38.1 °F 35.7 °F 23.4 °F 55% 29.84 in 10.0 mi WNW 3.5 mph - N/A   Overcast
8:55 PM 37.0 °F 32.4 °F 21.9 °F 54% 29.86 in 10.0 mi Variable 5.8 mph - N/A   Overcast
9:55 PM 36.3 °F 31.6 °F 21.7 °F 56% 29.87 in 10.0 mi Variable 5.8 mph - N/A   Overcast
10:55 PM 35.6 °F 29.9 °F 21.4 °F 56% 29.87 in 10.0 mi Variable 6.9 mph - N/A   Overcast
11:55 PM 35.2 °F 28.8 °F 20.7 °F 55% 29.86 in 10.0 mi NW 8.1 mph - N/A   Overcast